Location: Altmatt
(47.1333°N, 8.7000°E)
Time: 18:09:48
(UTC+00:00)

Cosmos 44 - Pass Details

Date: 13 July 2020
Orbit: 586 x 776 km, 65.1° (Epoch: 13 August)

Event Time Altitude Azimuth Distance (km) Brightness Sun altitude
Rises 20:11:43 0° 189° (S) 2,798 6.1 -7.9°
Reaches altitude 10° 20:14:05 10° 179° (S) 1,907 5.2 -8.2°
Maximum altitude 20:17:53 32° 116° (ESE) 1,031 3.7 -8.6°
Drops below altitude 10° 20:21:48 10° 54° (NE) 1,966 5.6 -9.1°
Sets 20:24:17 0° 44° (NE) 2,900 6.5 -9.4°
